• In Czech Republic
  • List of Countries
  • For 7 days
  • Water Temperature
  • Satellite Maps
  • Weather Map
  • Weather Widgets
  • user-avatar
    Login

    Hourly Weather Nanacamilpa

    Today, 18 July, Wednesday

    Time Temperature Precipitation Wind Pressure Humidity
    00:00 +11°C° 0 mm 1 mps 550 mmHg 82%
    01:00 +10°C° 0 mm 1 mps 550 mmHg 82%
    02:00 +10°C° 0 mm 1 mps 549 mmHg 82%
    03:00 +10°C° 0 mm 1 mps 549 mmHg 81%
    04:00 +10°C° 0 mm 1 mps 549 mmHg 81%
    05:00 +9°C° 0 mm 1 mps 549 mmHg 80%
    06:00 +11°C° 0 mm 1 mps 550 mmHg 72%
    07:00 +13°C° 0 mm 0 mps 552 mmHg 65%
    08:00 +15°C° 0 mm 0 mps 553 mmHg 57%
    09:00 +18°C° 0 mm 1 mps 554 mmHg 51%
    10:00 +20°C° 0 mm 1 mps 554 mmHg 45%
    11:00 +20°C° 0 mm 2 mps 555 mmHg 38%
    12:00 +21°C° 0.2 mm 2 mps 554 mmHg 40%
    13:00 +21°C° 0.2 mm 3 mps 554 mmHg 41%
    14:00 +21°C° 0.2 mm 3 mps 554 mmHg 43%
    15:00 +20°C° 0.3 mm 3 mps 553 mmHg 49%
    16:00 +19°C° 0.3 mm 3 mps 552 mmHg 56%
    17:00 +18°C° 0.3 mm 3 mps 551 mmHg 62%
    18:00 +16°C° 0.3 mm 3 mps 551 mmHg 68%
    19:00 +14°C° 0.3 mm 2 mps 550 mmHg 74%
    20:00 +13°C° 0.3 mm 1 mps 550 mmHg 80%
    21:00 +12°C° 0 mm 1 mps 550 mmHg 81%
    22:00 +12°C° 0 mm 1 mps 550 mmHg 82%
    23:00 +11°C° 0 mm 1 mps 550 mmHg 83%

    Tomorrow, 19 July, Thursday

    Time Temperature Precipitation Wind Pressure Humidity
    00:00 +11°C° 0 mm 1 mps 549 mmHg 83%
    01:00 +10°C° 0 mm 1 mps 549 mmHg 83%
    02:00 +10°C° 0 mm 1 mps 548 mmHg 83%
    03:00 +10°C° 0 mm 1 mps 548 mmHg 82%
    04:00 +10°C° 0 mm 1 mps 548 mmHg 81%
    05:00 +9°C° 0 mm 1 mps 548 mmHg 80%
    06:00 +12°C° 0 mm 1 mps 549 mmHg 72%
    07:00 +13°C° 0 mm 0 mps 551 mmHg 64%
    08:00 +15°C° 0 mm 0 mps 552 mmHg 56%
    09:00 +19°C° 0 mm 1 mps 553 mmHg 50%
    10:00 +20°C° 0 mm 1 mps 553 mmHg 44%
    11:00 +22°C° 0 mm 1 mps 554 mmHg 38%
    12:00 +21°C° 0.1 mm 2 mps 554 mmHg 38%
    13:00 +21°C° 0.1 mm 2 mps 553 mmHg 38%
    14:00 +23°C° 0.1 mm 2 mps 553 mmHg 39%
    15:00 +20°C° 0.4 mm 2 mps 552 mmHg 46%
    16:00 +19°C° 0.4 mm 3 mps 551 mmHg 53%
    17:00 +18°C° 0.4 mm 3 mps 551 mmHg 60%
    18:00 +16°C° 0.3 mm 2 mps 550 mmHg 66%
    19:00 +15°C° 0.3 mm 2 mps 550 mmHg 72%
    20:00 +13°C° 0.3 mm 1 mps 550 mmHg 79%
    21:00 +12°C° 0.1 mm 1 mps 550 mmHg 78%
    22:00 +12°C° 0.1 mm 1 mps 550 mmHg 78%
    23:00 +12°C° 0.1 mm 1 mps 550 mmHg 78%

    Day after tomorrow, 20 July, Friday

    Time Temperature Precipitation Wind Pressure Humidity
    00:00 +11°C° 0 mm 1 mps 549 mmHg 78%
    01:00 +11°C° 0 mm 1 mps 549 mmHg 79%
    02:00 +11°C° 0 mm 1 mps 548 mmHg 80%
    03:00 +11°C° 0 mm 1 mps 548 mmHg 80%
    04:00 +10°C° 0 mm 1 mps 548 mmHg 81%
    05:00 +10°C° 0 mm 1 mps 548 mmHg 82%
    06:00 +12°C° 0 mm 1 mps 550 mmHg 75%
    07:00 +14°C° 0 mm 1 mps 551 mmHg 69%
    08:00 +16°C° 0 mm 1 mps 552 mmHg 63%
    09:00 +19°C° 0.1 mm 1 mps 553 mmHg 58%
    10:00 +20°C° 0.1 mm 1 mps 553 mmHg 53%
    11:00 +21°C° 0.1 mm 2 mps 554 mmHg 48%
    12:00 +20°C° 0.7 mm 2 mps 553 mmHg 51%
    13:00 +20°C° 0.7 mm 2 mps 553 mmHg 54%
    14:00 +20°C° 0.7 mm 2 mps 552 mmHg 56%
    15:00 +19°C° 1.3 mm 2 mps 552 mmHg 61%
    16:00 +18°C° 1.3 mm 2 mps 552 mmHg 66%
    17:00 +17°C° 1.3 mm 2 mps 551 mmHg 71%
    18:00 +16°C° 1 mm 2 mps 551 mmHg 75%
    19:00 +15°C° 1 mm 2 mps 551 mmHg 78%
    20:00 +13°C° 1 mm 1 mps 551 mmHg 82%
    21:00 +13°C° 0.2 mm 1 mps 550 mmHg 83%
    22:00 +12°C° 0.2 mm 1 mps 550 mmHg 84%
    23:00 +12°C° 0.2 mm 1 mps 550 mmHg 85%

    21 July, Saturday

    Time Temperature Precipitation Wind Pressure Humidity
    00:00 +11°C° 0 mm 1 mps 550 mmHg 86%
    01:00 +11°C° 0 mm 1 mps 549 mmHg 87%
    02:00 +11°C° 0 mm 1 mps 549 mmHg 87%
    03:00 +10°C° 0 mm 1 mps 549 mmHg 86%
    04:00 +10°C° 0 mm 1 mps 548 mmHg 85%
    05:00 +10°C° 0 mm 1 mps 548 mmHg 84%
    06:00 +12°C° 0 mm 1 mps 550 mmHg 75%
    07:00 +14°C° 0 mm 1 mps 551 mmHg 65%
    08:00 +16°C° 0 mm 1 mps 552 mmHg 56%
    09:00 +17°C° 0 mm 2 mps 553 mmHg 49%
    10:00 +19°C° 0 mm 2 mps 554 mmHg 42%
    11:00 +21°C° 0 mm 3 mps 554 mmHg 35%
    12:00 +21°C° 0.1 mm 3 mps 554 mmHg 36%
    13:00 +21°C° 0.1 mm 4 mps 554 mmHg 38%
    14:00 +22°C° 0.1 mm 4 mps 553 mmHg 39%
    15:00 +20°C° 0 mm 4 mps 553 mmHg 46%
    16:00 +19°C° 0 mm 4 mps 552 mmHg 54%
    17:00 +18°C° 0 mm 4 mps 551 mmHg 61%
    18:00 +15°C° 0 mm 4 mps 551 mmHg 69%
    19:00 +13°C° 0 mm 3 mps 551 mmHg 76%
    20:00 +12°C° 0 mm 2 mps 551 mmHg 84%
    21:00 +12°C° 0 mm 2 mps 551 mmHg 85%
    22:00 +12°C° 0 mm 2 mps 551 mmHg 87%
    23:00 +10°C° 0 mm 2 mps 550 mmHg 88%

    22 July, Sunday

    Time Temperature Precipitation Wind Pressure Humidity
    00:00 +11°C° 0 mm 1 mps 550 mmHg 88%
    01:00 +10°C° 0 mm 1 mps 550 mmHg 88%
    02:00 +10°C° 0 mm 1 mps 549 mmHg 88%
    03:00 +9°C° 0 mm 1 mps 549 mmHg 87%
    04:00 +9°C° 0 mm 1 mps 549 mmHg 85%
    05:00 +9°C° 0 mm 1 mps 549 mmHg 84%
    06:00 +11°C° 0 mm 1 mps 550 mmHg 73%
    07:00 +13°C° 0 mm 1 mps 551 mmHg 63%
    08:00 +16°C° 0 mm 1 mps 553 mmHg 52%
    09:00 +17°C° 0 mm 2 mps 553 mmHg 49%
    10:00 +19°C° 0 mm 2 mps 554 mmHg 47%
    11:00 +20°C° 0 mm 3 mps 554 mmHg 44%
    12:00 +21°C° 0.3 mm 3 mps 554 mmHg 46%
    13:00 +21°C° 0.3 mm 3 mps 554 mmHg 48%
    14:00 +21°C° 0.3 mm 3 mps 553 mmHg 49%
    15:00 +20°C° 0.4 mm 3 mps 553 mmHg 55%
    16:00 +19°C° 0.4 mm 3 mps 552 mmHg 60%
    17:00 +18°C° 0.4 mm 3 mps 552 mmHg 65%
    18:00 +16°C° 0.1 mm 3 mps 551 mmHg 71%
    19:00 +14°C° 0.1 mm 2 mps 551 mmHg 76%
    20:00 +13°C° 0.1 mm 2 mps 551 mmHg 81%
    21:00 +12°C° 0 mm 1 mps 551 mmHg 82%
    22:00 +12°C° 0 mm 1 mps 550 mmHg 84%
    23:00 +11°C° 0 mm 1 mps 550 mmHg 85%

    23 July, Monday

    Time Temperature Precipitation Wind Pressure Humidity
    00:00 +11°C° 0 mm 1 mps 550 mmHg 85%
    01:00 +10°C° 0 mm 1 mps 549 mmHg 85%
    02:00 +10°C° 0 mm 1 mps 549 mmHg 85%
    03:00 +9°C° 0 mm 1 mps 549 mmHg 82%
    04:00 +9°C° 0 mm 1 mps 549 mmHg 80%
    05:00 +9°C° 0 mm 1 mps 548 mmHg 78%
    06:00 +11°C° 0 mm 1 mps 550 mmHg 68%
    07:00 +14°C° 0 mm 1 mps 551 mmHg 59%
    08:00 +16°C° 0 mm 1 mps 553 mmHg 50%
    09:00 +19°C° 0 mm 1 mps 553 mmHg 44%
    10:00 +20°C° 0 mm 2 mps 554 mmHg 37%
    11:00 +21°C° 0 mm 2 mps 555 mmHg 31%
    12:00 +23°C° 0 mm 2 mps 554 mmHg 32%
    13:00 +22°C° 0 mm 3 mps 554 mmHg 33%
    14:00 +24°C° 0 mm 3 mps 554 mmHg 35%
    15:00 +21°C° 0.3 mm 3 mps 553 mmHg 42%
    16:00 +20°C° 0.3 mm 3 mps 552 mmHg 50%
    17:00 +19°C° 0.3 mm 3 mps 552 mmHg 58%
    18:00 +17°C° 0.4 mm 3 mps 551 mmHg 64%
    19:00 +15°C° 0.4 mm 2 mps 551 mmHg 71%
    20:00 +13°C° 0.4 mm 1 mps 550 mmHg 77%
    21:00 +13°C° 0 mm 1 mps 550 mmHg 79%
    22:00 +12°C° 0 mm 1 mps 550 mmHg 80%
    23:00 +12°C° 0 mm 1 mps 550 mmHg 81%
    Show more